Weather History for Point Pleasant, WV

Change the Weather History Date:

Saturday, February 2, 2013

  Actual Average (KHTS) Record (KHTS)
Temperature  
Mean Temperature 20 °F 35 °F  
Max Temperature 30 °F 44 °F 68 °F (1903)
Min Temperature 10 °F 26 °F -2 °F (1905)
Degree Days  
Heating Degree Days 45 30  
Month to date heating degree days 60  
Since 1 July heating degree days 2784  
Cooling Degree Days 0 0  
Month to date cooling degree days 0  
Year to date cooling degree days 0  
Moisture  
Dew Point 17 °F    
Average Humidity 82    
Maximum Humidity 93    
Minimum Humidity 63    
Precipitation  
Precipitation 0.00 in 0.11 in 1.23 in (1956)
Month to date precipitation 0.22  
Year to date precipitation 3.19  
Snow  
Snow 0.00 in - - ()
Month to date snowfall  
Since 1 September snowfall  
Snow Depth -    
Sea Level Pressure  
Sea Level Pressure 30.17 in    
Wind  
Wind Speed 2 mph (SSW)    
Max Wind Speed 8 mph    
Max Gust Speed -    
Visibility 7 miles    
Events Snow    
T = Trace of Precipitation, MM = Missing Value Source: NWS Daily Summary

Daily Weather History Graph

Daily Weather History Graph

Search for Another Location

Airport:

Trip Planner

Search our weather history database for the weather conditions in past years. The results will help you decide how hot, cold, wet, or windy it might be!

Date:

Astronomy

Feb. 02, 2013 Rise Set
Actual Time 7:33 AM EST 5:51 PM EST
Civil Twilight 7:05 AM EST 6:19 PM EST
Nautical Twilight 6:33 AM EST 6:51 PM EST
Astronomical Twilight 6:02 AM EST 7:22 PM EST
Moon No Moon Rise 10:47 AM EST (2/2)
Length of Visible Light 11h 13m
Length of Day
10h 17m
Waning Gibbous, 60% of the Moon is Illuminated
Feb 2
Waning Gibbous
Feb 3
Last Quarter
Feb 10
New
Feb 17
First Quarter
Feb 25
Full

Hourly Weather History & Observations

Time (EST) Temp. Windchill Dew Point Humidity Pressure Visibility Wind Dir Wind Speed Gust Speed Precip Events Conditions
12:15 AM 10.4 °F - 5.0 °F 79% 30.37 in 10.0 mi Calm Calm - N/A   Clear
12:55 AM 10.4 °F - 5.0 °F 79% 30.37 in 10.0 mi Calm Calm - N/A   Clear
1:15 AM 10.4 °F - 6.8 °F 85% 30.36 in 10.0 mi Calm Calm - N/A   Clear
1:55 AM 10.4 °F - 6.8 °F 85% 30.35 in 10.0 mi Calm Calm - N/A   Clear
2:15 AM 12.2 °F - 6.8 °F 79% 30.35 in 10.0 mi Calm Calm - N/A   Clear
2:55 AM 12.2 °F - 8.6 °F 85% 30.34 in 10.0 mi Calm Calm - N/A   Clear
3:15 AM 14.0 °F - 6.8 °F 73% 30.34 in 10.0 mi Calm Calm - N/A   Clear
3:35 AM 14.0 °F - 6.8 °F 73% 30.34 in 10.0 mi Calm Calm - N/A   Clear
3:55 AM 14.0 °F - 6.8 °F 73% 30.32 in 10.0 mi Calm Calm - N/A   Clear
4:15 AM 14.0 °F - 6.8 °F 73% 30.32 in 10.0 mi Calm Calm - N/A   Clear
4:35 AM 14.0 °F - 8.6 °F 79% 30.32 in 10.0 mi Calm Calm - N/A   Clear
4:55 AM 14.0 °F - 8.6 °F 79% 30.31 in 10.0 mi Calm Calm - N/A   Clear
5:15 AM 14.0 °F - 8.6 °F 79% 30.31 in 10.0 mi Calm Calm - N/A   Clear
5:35 AM 14.0 °F - 6.8 °F 73% 30.30 in 10.0 mi Calm Calm - N/A   Clear
5:55 AM 14.0 °F - 8.6 °F 79% 30.29 in 10.0 mi Calm Calm - N/A   Clear
6:15 AM 15.8 °F 10.2 °F 8.6 °F 73% 30.29 in 10.0 mi South 3.5 mph - N/A   Clear
6:35 AM 15.8 °F - 8.6 °F 73% 30.29 in 10.0 mi Calm Calm - N/A   Clear
6:55 AM 15.8 °F - 8.6 °F 73% 30.29 in 10.0 mi Calm Calm - N/A   Clear
7:15 AM 15.8 °F - 8.6 °F 73% 30.29 in 10.0 mi Calm Calm - N/A   Clear
7:35 AM 14.0 °F - 8.6 °F 79% 30.29 in 10.0 mi Calm Calm - N/A   Clear
7:55 AM 14.0 °F - 8.6 °F 79% 30.29 in 10.0 mi Calm Calm - N/A   Scattered Clouds
8:15 AM 17.6 °F - 8.6 °F 68% 30.30 in 10.0 mi Calm Calm - N/A   Mostly Cloudy
8:35 AM 17.6 °F 10.7 °F 10.4 °F 73% 30.29 in 10.0 mi SSW 4.6 mph - N/A   Overcast
8:55 AM 19.4 °F 14.3 °F 10.4 °F 68% 30.28 in 10.0 mi South 3.5 mph - N/A   Scattered Clouds
9:15 AM 19.4 °F 14.3 °F 10.4 °F 68% 30.27 in 10.0 mi South 3.5 mph - N/A   Scattered Clouds
9:35 AM 21.2 °F 16.4 °F 10.4 °F 63% 30.26 in 10.0 mi SSW 3.5 mph - N/A   Mostly Cloudy
9:55 AM 21.2 °F 12.6 °F 14.0 °F 74% 30.26 in 5.0 mi SW 6.9 mph - N/A Snow Light Snow
10:15 AM 23.0 °F 14.7 °F 15.8 °F 74% 30.25 in 4.0 mi SW 6.9 mph - N/A Snow Light Snow
10:35 AM 23.0 °F 14.7 °F 17.6 °F 80% 30.23 in 2.5 mi South 6.9 mph - N/A Snow Light Snow
10:55 AM 23.0 °F 14.7 °F 19.4 °F 86% 30.22 in 3.0 mi SSW 6.9 mph - N/A Snow Light Snow
11:15 AM 23.0 °F 17.0 °F 19.4 °F 86% 30.22 in 1.8 mi SSW 4.6 mph - N/A Snow Light Snow
11:55 AM 24.8 °F 16.9 °F 19.4 °F 80% 30.18 in 1.5 mi South 6.9 mph - N/A Snow Light Snow
12:15 PM 23.0 °F 14.7 °F 19.4 °F 86% 30.16 in 0.5 mi SSW 6.9 mph - N/A Snow Snow
12:35 PM 23.0 °F 13.9 °F 21.2 °F 93% 30.14 in 0.5 mi SSW 8.1 mph - N/A Snow Light Snow
12:55 PM 24.8 °F 16.9 °F 21.2 °F 86% 30.12 in 1.2 mi South 6.9 mph - N/A Snow Light Snow
1:15 PM 24.8 °F 16.9 °F 21.2 °F 86% 30.09 in 1.0 mi South 6.9 mph - N/A Snow Light Snow
1:35 PM 26.6 °F 19.1 °F 21.2 °F 80% 30.07 in 1.0 mi South 6.9 mph - N/A Snow Light Snow
1:55 PM 26.6 °F 19.1 °F 21.2 °F 80% 30.07 in 1.2 mi SSW 6.9 mph - N/A Snow Light Snow
2:15 PM 26.6 °F 20.0 °F 23.0 °F 86% 30.06 in 2.0 mi SW 5.8 mph - N/A Snow Light Snow
2:35 PM 28.4 °F 23.3 °F 23.0 °F 80% 30.05 in 1.5 mi SW 4.6 mph - N/A Snow Light Snow
3:15 PM 28.4 °F 20.4 °F 23.0 °F 80% 30.04 in 1.8 mi SW 8.1 mph - N/A Snow Light Snow
3:35 PM 28.4 °F 20.4 °F 23.0 °F 80% 30.04 in 10.0 mi SW 8.1 mph - N/A   Mostly Cloudy
3:55 PM 28.4 °F 23.3 °F 23.0 °F 80% 30.03 in 2.0 mi SSW 4.6 mph - N/A Snow Light Snow
4:15 PM 28.4 °F 23.3 °F 24.8 °F 86% 30.03 in 2.5 mi SW 4.6 mph - N/A Snow Light Snow
4:35 PM 28.4 °F 23.3 °F 24.8 °F 86% 30.02 in 2.0 mi SSW 4.6 mph - N/A Snow Light Snow
4:55 PM 28.4 °F 23.3 °F 24.8 °F 86% 30.02 in 3.0 mi SW 4.6 mph - N/A Snow Light Snow
5:15 PM 28.4 °F 22.2 °F 24.8 °F 86% 30.02 in 2.0 mi SW 5.8 mph - N/A Snow Light Snow
5:35 PM 28.4 °F - 24.8 °F 86% 30.02 in 2.5 mi Calm Calm - N/A Snow Light Snow
5:55 PM 28.4 °F - 26.6 °F 93% 30.02 in 1.8 mi Calm Calm - N/A Snow Light Snow
6:15 PM 28.4 °F - 26.6 °F 93% 30.03 in 5.0 mi Calm Calm - N/A Snow Light Snow
6:55 PM 28.4 °F - 26.6 °F 93% 30.03 in 5.0 mi Calm Calm - N/A Snow Light Snow
7:15 PM 28.4 °F - 26.6 °F 93% 30.03 in 10.0 mi Calm Calm - N/A   Overcast
7:55 PM 28.4 °F - 26.6 °F 93% 30.03 in 10.0 mi Calm Calm - N/A   Overcast
8:15 PM 28.4 °F 24.6 °F 26.6 °F 93% 30.03 in 10.0 mi SW 3.5 mph - N/A   Mostly Cloudy
8:35 PM 28.4 °F 23.3 °F 26.6 °F 93% 30.03 in 10.0 mi SW 4.6 mph - N/A   Mostly Cloudy
9:15 PM 28.4 °F 22.2 °F 26.6 °F 93% 30.03 in 10.0 mi SW 5.8 mph - N/A   Overcast
9:35 PM 30.2 °F 25.4 °F 26.6 °F 86% 30.03 in 10.0 mi SW 4.6 mph - N/A   Overcast
9:55 PM 30.2 °F 24.3 °F 26.6 °F 86% 30.03 in 10.0 mi SW 5.8 mph - N/A   Mostly Cloudy
10:15 PM 30.2 °F 24.3 °F 26.6 °F 86% 30.03 in 10.0 mi WSW 5.8 mph - N/A   Mostly Cloudy
10:35 PM 30.2 °F 25.4 °F 26.6 °F 86% 30.03 in 10.0 mi WSW 4.6 mph - N/A   Mostly Cloudy
10:55 PM 30.2 °F 24.3 °F 26.6 °F 86% 30.03 in 10.0 mi SW 5.8 mph - N/A   Mostly Cloudy
11:15 PM 30.2 °F 25.4 °F 26.6 °F 86% 30.03 in 10.0 mi WSW 4.6 mph - N/A   Mostly Cloudy
11:55 PM 30.2 °F 25.4 °F 26.6 °F 86% 30.03 in 10.0 mi WSW 4.6 mph - N/A   Overcast